Back to Top

Language: 

My Weather Underground Personal Weather Station Historical Data with Graphs...

Delerius Weather Station Historical Data
Daily Summary for February 7, 2017 Units:  English    Metric   Both
« Previous Day
Next Day »
Daily Weekly Monthly Yearly Custom
  High: Low: Average:
Temperature: 49.9 °F 38.0 °F 41.8 °F
Dew Point: 44.6 °F 36.8 °F 39.9 °F
Humidity: 98 % 78 % 93 %
Wind Speed: 11.0 mph 0.0 mph 2.7 mph
Wind Gust: 20.0 mph - -
Wind:- - SSE
Pressure: 30.15 in 29.81 in -
Precipitation: 0.02 in    
Historical Graphs
 
 
Tabular Data for February 7, 2017
Time Temperature Dew Point Pressure Wind Wind Speed Wind Gust Humidity Rainfall Rate (Hourly) solar Conditions
00:00 38.1 °F 37.3 °F 29.85 in SE 9.0 mph 9.0 mph 97 % 0.00 in 0 W/m2
00:05 38.1 °F 37.3 °F 29.85 in SE 11.0 mph 11.0 mph 97 % 0.00 in 0 W/m2
00:15 38.1 °F 37.3 °F 29.85 in SE 9.0 mph 10.0 mph 97 % 0.00 in 0 W/m2
00:25 38.1 °F 37.3 °F 29.86 in ESE 9.0 mph 9.0 mph 97 % 0.00 in 0 W/m2
00:30 38.1 °F 37.3 °F 29.85 in SE 10.0 mph 11.0 mph 97 % 0.00 in 0 W/m2
00:35 38.0 °F 37.2 °F 29.85 in SSE 10.0 mph 11.0 mph 97 % 0.00 in 0 W/m2
00:40 38.0 °F 37.2 °F 29.85 in ESE 9.0 mph 9.0 mph 97 % 0.00 in 0 W/m2
00:45 38.0 °F 37.2 °F 29.85 in SSE 8.0 mph 11.0 mph 97 % 0.00 in 0 W/m2
00:50 38.0 °F 37.2 °F 29.85 in SE 8.0 mph 11.0 mph 97 % 0.00 in 0 W/m2
01:00 38.0 °F 37.2 °F 29.84 in SE 8.0 mph 8.0 mph 97 % 0.00 in 0 W/m2
01:05 38.0 °F 37.2 °F 29.84 in SSE 8.0 mph 9.0 mph 97 % 0.00 in 0 W/m2
01:10 38.0 °F 37.2 °F 29.84 in SE 8.0 mph 20.0 mph 97 % 0.00 in 0 W/m2
01:15 38.0 °F 37.2 °F 29.84 in SE 9.0 mph 20.0 mph 97 % 0.00 in 0 W/m2
01:20 38.0 °F 37.2 °F 29.84 in SSE 10.0 mph 20.0 mph 97 % 0.00 in 0 W/m2
01:30 38.0 °F 37.2 °F 29.83 in SSE 10.0 mph 20.0 mph 97 % 0.00 in 0 W/m2
01:35 38.0 °F 37.2 °F 29.83 in SE 10.0 mph 20.0 mph 97 % 0.00 in 0 W/m2
01:40 38.0 °F 37.2 °F 29.83 in SSE 10.0 mph 20.0 mph 97 % 0.00 in 0 W/m2
01:45 38.0 °F 37.2 °F 29.83 in SSE 10.0 mph 20.0 mph 97 % 0.00 in 0 W/m2
01:55 38.0 °F 37.2 °F 29.83 in SSE 8.0 mph 20.0 mph 97 % 0.00 in 0 W/m2
02:05 38.0 °F 37.2 °F 29.83 in SSE 7.0 mph 10.0 mph 97 % 0.00 in 0 W/m2
02:10 38.1 °F 37.3 °F 29.83 in SE 8.0 mph 20.0 mph 97 % 0.00 in 0 W/m2
02:15 38.1 °F 37.3 °F 29.83 in SSE 8.0 mph 20.0 mph 97 % 0.00 in 0 W/m2
02:20 38.2 °F 37.4 °F 29.83 in ESE 7.0 mph 7.0 mph 97 % 0.00 in 0 W/m2
02:25 38.2 °F 37.4 °F 29.83 in ESE 6.0 mph 20.0 mph 97 % 0.00 in 0 W/m2
02:35 38.3 °F 37.5 °F 29.83 in SE 9.0 mph 20.0 mph 97 % 0.00 in 0 W/m2
02:40 38.4 °F 37.6 °F 29.83 in South 9.0 mph 20.0 mph 97 % 0.00 in 0 W/m2
02:45 38.4 °F 37.6 °F 29.83 in SE 10.0 mph 20.0 mph 97 % 0.00 in 0 W/m2
02:50 38.5 °F 37.7 °F 29.83 in SE 8.0 mph 8.0 mph 97 % 0.00 in 0 W/m2
02:55 38.5 °F 37.7 °F 29.82 in SE 7.0 mph 12.0 mph 97 % 0.00 in 0 W/m2
03:00 38.5 °F 37.7 °F 29.82 in SE 7.0 mph 7.0 mph 97 % 0.00 in 0 W/m2
03:10 38.6 °F 37.8 °F 29.82 in SSE 6.0 mph 20.0 mph 97 % 0.00 in 0 W/m2
03:15 38.7 °F 37.9 °F 29.81 in SE 8.0 mph 20.0 mph 97 % 0.00 in 0 W/m2
03:20 38.7 °F 37.9 °F 29.82 in SE 8.0 mph 20.0 mph 97 % 0.00 in 0 W/m2
03:25 38.7 °F 37.9 °F 29.81 in ESE 8.0 mph 20.0 mph 97 % 0.00 in 0 W/m2
03:30 38.8 °F 38.0 °F 29.81 in SE 9.0 mph 9.0 mph 97 % 0.00 in 0 W/m2
03:40 38.8 °F 38.0 °F 29.81 in SE 7.0 mph 20.0 mph 97 % 0.00 in 0 W/m2
03:45 38.9 °F 38.1 °F 29.82 in SE 6.0 mph 20.0 mph 97 % 0.00 in 0 W/m2
03:50 38.9 °F 38.1 °F 29.82 in SSE 7.0 mph 20.0 mph 97 % 0.00 in 0 W/m2
03:55 39.0 °F 38.2 °F 29.81 in SE 7.0 mph 20.0 mph 97 % 0.00 in 0 W/m2
04:00 39.0 °F 38.2 °F 29.82 in SE 6.0 mph 6.0 mph 97 % 0.00 in 0 W/m2
04:05 39.0 °F 38.2 °F 29.82 in SE 6.0 mph 9.0 mph 97 % 0.00 in 0 W/m2
04:15 39.1 °F 38.3 °F 29.82 in SSE 6.0 mph 20.0 mph 97 % 0.00 in 0 W/m2
04:20 39.1 °F 38.3 °F 29.82 in SSE 6.0 mph 6.0 mph 97 % 0.00 in 0 W/m2
04:25 39.2 °F 38.4 °F 29.82 in South 7.0 mph 7.0 mph 97 % 0.00 in 0 W/m2
04:30 39.2 °F 38.4 °F 29.82 in South 7.0 mph 7.0 mph 97 % 0.00 in 0 W/m2
04:35 39.2 °F 38.4 °F 29.82 in South 7.0 mph 20.0 mph 97 % 0.00 in 0 W/m2
04:45 39.3 °F 38.5 °F 29.82 in South 4.0 mph 7.0 mph 97 % 0.00 in 0 W/m2
04:50 39.3 °F 38.5 °F 29.82 in South 4.0 mph 4.0 mph 97 % 0.00 in 0 W/m2
04:55 39.4 °F 38.6 °F 29.82 in SE 5.0 mph 9.0 mph 97 % 0.00 in 0 W/m2
05:00 39.4 °F 38.6 °F 29.82 in SW 6.0 mph 6.0 mph 97 % 0.00 in 0 W/m2
05:05 39.4 °F 38.6 °F 29.82 in SSW 7.0 mph 7.0 mph 97 % 0.00 in 0 W/m2
05:10 39.4 °F 38.6 °F 29.82 in SSE 6.0 mph 20.0 mph 97 % 0.00 in 0 W/m2
05:20 39.5 °F 38.7 °F 29.82 in South 5.0 mph 20.0 mph 97 % 0.00 in 0 W/m2
05:25 39.5 °F 38.7 °F 29.82 in SSW 5.0 mph 20.0 mph 97 % 0.00 in 0 W/m2
05:30 39.5 °F 38.7 °F 29.82 in SSE 4.0 mph 20.0 mph 97 % 0.00 in 0 W/m2
05:35 39.6 °F 38.8 °F 29.83 in SE 4.0 mph 20.0 mph 97 % 0.00 in 0 W/m2
05:40 39.6 °F 38.8 °F 29.83 in SSW 5.0 mph 5.0 mph 97 % 0.00 in 0 W/m2
05:50 39.6 °F 38.8 °F 29.83 in SE 5.0 mph 20.0 mph 97 % 0.00 in 0 W/m2
05:55 39.6 °F 38.8 °F 29.83 in South 5.0 mph 20.0 mph 97 % 0.00 in 0 W/m2
06:00 39.6 °F 38.8 °F 29.83 in SSE 4.0 mph 4.0 mph 97 % 0.00 in 0 W/m2
06:05 39.6 °F 38.8 °F 29.83 in SE 5.0 mph 7.0 mph 97 % 0.00 in 0 W/m2
06:10 39.6 °F 38.8 °F 29.82 in SSE 5.0 mph 5.0 mph 97 % 0.00 in 0 W/m2
06:15 39.7 °F 38.9 °F 29.82 in SE 6.0 mph 6.0 mph 97 % 0.00 in 0 W/m2
06:25 39.7 °F 38.9 °F 29.83 in SSW 6.0 mph 20.0 mph 97 % 0.00 in 0 W/m2
06:30 39.7 °F 38.9 °F 29.82 in South 6.0 mph 6.0 mph 97 % 0.00 in 0 W/m2
06:35 39.7 °F 38.9 °F 29.83 in SE 6.0 mph 20.0 mph 97 % 0.00 in 0 W/m2
06:40 39.7 °F 38.9 °F 29.83 in SE 5.0 mph 20.0 mph 97 % 0.00 in 0 W/m2
06:45 39.7 °F 38.9 °F 29.83 in SSE 4.0 mph 20.0 mph 97 % 0.00 in 0 W/m2
06:55 39.8 °F 39.0 °F 29.84 in ESE 1.0 mph 4.0 mph 97 % 0.00 in 0 W/m2
07:00 39.8 °F 39.0 °F 29.84 in SE 1.0 mph 20.0 mph 97 % 0.00 in 0 W/m2
07:05 39.8 °F 39.0 °F 29.84 in SE 1.0 mph 20.0 mph 97 % 0.00 in 0 W/m2
07:10 39.9 °F 39.1 °F 29.84 in SE 1.0 mph 20.0 mph 97 % 0.00 in 0 W/m2
07:15 39.9 °F 39.1 °F 29.84 in SE 3.0 mph 20.0 mph 97 % 0.00 in 0 W/m2
07:20 39.9 °F 39.1 °F 29.84 in SE 3.0 mph 3.0 mph 97 % 0.00 in 0 W/m2
07:30 40.0 °F 39.2 °F 29.84 in SSE 2.0 mph 20.0 mph 97 % 0.00 in 0 W/m2
07:35 40.0 °F 39.2 °F 29.84 in ESE 1.0 mph 20.0 mph 97 % 0.00 in 0 W/m2
07:40 40.0 °F 39.2 °F 29.84 in ESE 1.0 mph 1.0 mph 97 % 0.00 in 0 W/m2
07:45 40.0 °F 39.2 °F 29.84 in Calm   2.0 mph 97 % 0.00 in 0 W/m2
07:50 40.0 °F 39.2 °F 29.84 in ESE 1.0 mph 20.0 mph 97 % 0.00 in 0 W/m2
08:00 40.1 °F 39.3 °F 29.84 in SSE 2.0 mph 2.0 mph 97 % 0.00 in 11 W/m2
08:05 40.1 °F 39.3 °F 29.84 in SSE 2.0 mph 20.0 mph 97 % 0.00 in 12 W/m2
08:10 40.1 °F 39.3 °F 29.84 in SSE 1.0 mph 1.0 mph 97 % 0.00 in 18 W/m2
08:20 40.2 °F 39.4 °F 29.84 in Calm   20.0 mph 97 % 0.00 in 19 W/m2
08:25 40.3 °F 39.5 °F 29.84 in ESE 1.0 mph 20.0 mph 97 % 0.00 in 23 W/m2
08:30 40.3 °F 39.5 °F 29.85 in ESE 1.0 mph 20.0 mph 97 % 0.00 in 28 W/m2
08:35 40.4 °F 39.6 °F 29.85 in ESE 1.0 mph 20.0 mph 97 % 0.00 in 37 W/m2
08:45 40.6 °F 40.1 °F 29.85 in Calm   20.0 mph 98 % 0.00 in 32 W/m2
08:50 40.6 °F 40.1 °F 29.85 in Calm   20.0 mph 98 % 0.00 in 33 W/m2
08:55 40.5 °F 39.7 °F 29.85 in Calm   20.0 mph 97 % 0.00 in 37 W/m2
09:00 40.5 °F 39.7 °F 29.86 in South 1.0 mph 1.0 mph 97 % 0.00 in 165 W/m2
09:10 40.8 °F 40.3 °F 29.86 in Calm   20.0 mph 98 % 0.00 in 186 W/m2
09:15 40.9 °F 40.4 °F 29.86 in Calm   20.0 mph 98 % 0.00 in 185 W/m2
09:20 41.1 °F 40.6 °F 29.86 in Calm   20.0 mph 98 % 0.00 in 183 W/m2
09:25 41.2 °F 40.7 °F 29.86 in Calm   20.0 mph 98 % 0.00 in 60 W/m2
09:30 41.3 °F 40.8 °F 29.86 in SW 1.0 mph 20.0 mph 98 % 0.00 in 162 W/m2
09:40 41.9 °F 41.4 °F 29.87 in SSW 1.0 mph 20.0 mph 98 % 0.00 in 237 W/m2
09:45 42.4 °F 41.9 °F 29.87 in SSW 1.0 mph 20.0 mph 98 % 0.00 in 251 W/m2
09:50 42.8 °F 42.3 °F 29.87 in SSW 1.0 mph 1.0 mph 98 % 0.00 in 257 W/m2
09:55 43.3 °F 42.8 °F 29.87 in Calm   20.0 mph 98 % 0.00 in 265 W/m2
10:00 43.8 °F 43.3 °F 29.88 in Calm   20.0 mph 98 % 0.00 in 272 W/m2
10:05 44.2 °F 43.7 °F 29.88 in Calm   20.0 mph 98 % 0.00 in 279 W/m2
10:15 44.9 °F 44.1 °F 29.88 in Calm   20.0 mph 97 % 0.00 in 297 W/m2
10:20 45.2 °F 44.4 °F 29.88 in Calm   20.0 mph 97 % 0.00 in 302 W/m2
10:25 45.6 °F 44.5 °F 29.88 in Calm   20.0 mph 96 % 0.00 in 308 W/m2
10:30 45.8 °F 44.4 °F 29.88 in Calm   20.0 mph 95 % 0.00 in 315 W/m2
10:35 46.1 °F 44.5 °F 29.88 in Calm   20.0 mph 94 % 0.00 in 320 W/m2
10:45 46.4 °F 44.2 °F 29.89 in East 2.0 mph 20.0 mph 92 % 0.00 in 341 W/m2
10:50 46.6 °F 44.1 °F 29.89 in East 1.0 mph 1.0 mph 91 % 0.00 in 348 W/m2
10:55 47.0 °F 44.5 °F 29.89 in Calm   20.0 mph 91 % 0.00 in 359 W/m2
11:00 47.4 °F 44.6 °F 29.90 in Calm   20.0 mph 90 % 0.00 in 371 W/m2
11:05 47.8 °F 44.4 °F 29.90 in Calm   20.0 mph 88 % 0.00 in 413 W/m2
11:10 48.3 °F 44.6 °F 29.90 in Calm   20.0 mph 87 % 0.00 in 438 W/m2
11:20 48.2 °F 43.3 °F 29.90 in SW 4.0 mph 4.0 mph 83 % 0.00 in 251 W/m2
11:25 47.9 °F 43.3 °F 29.90 in SW 4.0 mph 5.0 mph 84 % 0.00 in 308 W/m2
11:30 47.7 °F 43.4 °F 29.90 in SW 4.0 mph 4.0 mph 85 % 0.00 in 392 W/m2
11:35 47.9 °F 43.6 °F 29.90 in SW 3.0 mph 20.0 mph 85 % 0.00 in 299 W/m2
11:40 48.2 °F 43.6 °F 29.90 in WSW 3.0 mph 20.0 mph 84 % 0.00 in 434 W/m2
11:50 48.9 °F 44.3 °F 29.90 in SSW 3.0 mph 3.0 mph 84 % 0.00 in 550 W/m2
11:55 49.2 °F 43.6 °F 29.90 in SSW 4.0 mph 5.0 mph 81 % 0.00 in 563 W/m2
12:00 49.5 °F 44.2 °F 29.90 in WSW 4.0 mph 20.0 mph 82 % 0.00 in 239 W/m2
12:05 49.5 °F 43.6 °F 29.90 in South 3.0 mph 20.0 mph 80 % 0.00 in 547 W/m2
12:10 49.7 °F 44.1 °F 29.90 in SSW 4.0 mph 4.0 mph 81 % 0.00 in 513 W/m2
12:15 49.9 °F 44.0 °F 29.90 in SSW 4.0 mph 6.0 mph 80 % 0.00 in 487 W/m2
12:25 49.9 °F 43.6 °F 29.91 in SSW 3.0 mph 20.0 mph 79 % 0.00 in 213 W/m2
12:30 49.5 °F 42.9 °F 29.91 in SSW 2.0 mph 20.0 mph 78 % 0.00 in 174 W/m2
12:35 49.2 °F 42.6 °F 29.91 in SSW 1.0 mph 20.0 mph 78 % 0.00 in 181 W/m2
12:40 49.0 °F 42.4 °F 29.91 in Calm   20.0 mph 78 % 0.00 in 163 W/m2
12:45 49.0 °F 42.8 °F 29.91 in Calm   20.0 mph 79 % 0.00 in 171 W/m2
12:55 49.3 °F 42.7 °F 29.91 in SSW 1.0 mph 20.0 mph 78 % 0.00 in 156 W/m2
13:00 49.5 °F 42.9 °F 29.91 in Calm   20.0 mph 78 % 0.00 in 304 W/m2
13:05 49.4 °F 43.5 °F 29.92 in NNE 2.0 mph 20.0 mph 80 % 0.00 in 128 W/m2
13:10 48.9 °F 43.3 °F 29.92 in NE 4.0 mph 20.0 mph 81 % 0.00 in 232 W/m2
13:15 48.4 °F 43.2 °F 29.92 in NNE 4.0 mph 20.0 mph 82 % 0.00 in 120 W/m2
13:20 48.0 °F 43.1 °F 29.91 in NNE 4.0 mph 4.0 mph 83 % 0.00 in 90 W/m2
13:30 47.5 °F 43.5 °F 29.92 in NNE 3.0 mph 20.0 mph 86 % 0.00 in 86 W/m2
13:35 47.2 °F 43.2 °F 29.92 in ENE 4.0 mph 20.0 mph 86 % 0.00 in 98 W/m2
13:40 47.0 °F 43.3 °F 29.92 in ENE 4.0 mph 4.0 mph 87 % 0.00 in 114 W/m2
13:45 46.7 °F 43.3 °F 29.92 in NE 3.0 mph 20.0 mph 88 % 0.00 in 132 W/m2
13:50 46.6 °F 43.2 °F 29.92 in ENE 3.0 mph 20.0 mph 88 % 0.00 in 142 W/m2
14:00 46.6 °F 43.5 °F 29.93 in SE 1.0 mph 1.0 mph 89 % 0.00 in 125 W/m2
14:05 46.8 °F 43.7 °F 29.93 in ENE 1.0 mph 5.0 mph 89 % 0.00 in 330 W/m2
14:10 47.1 °F 44.0 °F 29.93 in NE 2.0 mph 2.0 mph 89 % 0.00 in 306 W/m2
14:15 47.5 °F 44.1 °F 29.93 in ENE 2.0 mph 4.0 mph 88 % 0.00 in 294 W/m2
14:20 47.7 °F 44.0 °F 29.93 in ENE 1.0 mph 1.0 mph 87 % 0.00 in 285 W/m2
14:25 47.9 °F 44.2 °F 29.93 in ENE 2.0 mph 2.0 mph 87 % 0.00 in 285 W/m2
14:35 48.2 °F 44.2 °F 29.94 in ENE 1.0 mph 20.0 mph 86 % 0.00 in 299 W/m2
14:40 48.3 °F 44.3 °F 29.94 in NE 2.0 mph 20.0 mph 86 % 0.00 in 269 W/m2
14:45 48.2 °F 43.9 °F 29.94 in ENE 3.0 mph 20.0 mph 85 % 0.00 in 248 W/m2
14:50 47.7 °F 43.4 °F 29.94 in ESE 3.0 mph 20.0 mph 85 % 0.00 in 54 W/m2
14:55 47.3 °F 43.3 °F 29.95 in East 2.0 mph 20.0 mph 86 % 0.00 in 49 W/m2
15:05 46.6 °F 42.9 °F 29.95 in ENE 1.0 mph 20.0 mph 87 % 0.00 in 62 W/m2
15:10 46.5 °F 42.8 °F 29.95 in East 1.0 mph 20.0 mph 87 % 0.00 in 62 W/m2
15:15 46.4 °F 43.0 °F 29.95 in ESE 1.0 mph 20.0 mph 88 % 0.00 in 63 W/m2
15:20 46.2 °F 42.8 °F 29.95 in East 2.0 mph 2.0 mph 88 % 0.00 in 69 W/m2
15:30 45.9 °F 42.8 °F 29.96 in East 1.0 mph 20.0 mph 89 % 0.00 in 111 W/m2
15:35 45.9 °F 42.8 °F 29.96 in ESE 1.0 mph 20.0 mph 89 % 0.00 in 120 W/m2
15:40 45.8 °F 42.7 °F 29.96 in ESE 2.0 mph 2.0 mph 89 % 0.00 in 70 W/m2
15:45 45.8 °F 42.7 °F 29.96 in ESE 1.0 mph 20.0 mph 89 % 0.00 in 33 W/m2
15:55 45.5 °F 42.4 °F 29.97 in Calm   20.0 mph 89 % 0.00 in 23 W/m2
16:00 45.3 °F 42.2 °F 29.97 in Calm   20.0 mph 89 % 0.00 in 21 W/m2
16:05 45.1 °F 42.1 °F 29.97 in Calm   20.0 mph 89 % 0.00 in 19 W/m2
16:15 44.7 °F 41.7 °F 29.98 in Calm   20.0 mph 89 % 0.00 in 23 W/m2
16:20 44.5 °F 41.5 °F 29.98 in Calm   20.0 mph 89 % 0.00 in 32 W/m2
16:25 44.4 °F 41.7 °F 29.98 in Calm   20.0 mph 90 % 0.00 in 32 W/m2
16:30 44.3 °F 41.6 °F 29.98 in Calm   20.0 mph 90 % 0.00 in 28 W/m2
16:35 44.2 °F 41.5 °F 29.98 in Calm   20.0 mph 90 % 0.00 in 19 W/m2
16:45 44.0 °F 41.5 °F 29.99 in Calm   20.0 mph 91 % 0.00 in 7 W/m2
16:50 43.9 °F 41.4 °F 29.99 in Calm   20.0 mph 91 % 0.00 in 7 W/m2
16:55 43.7 °F 41.2 °F 29.99 in Calm   20.0 mph 91 % 0.00 in 5 W/m2
17:00 43.5 °F 41.0 °F 29.99 in Calm   20.0 mph 91 % 0.00 in 0 W/m2
17:05 43.3 °F 40.8 °F 30.00 in Calm   20.0 mph 91 % 0.00 in 0 W/m2
17:10 43.1 °F 40.7 °F 30.00 in Calm   20.0 mph 91 % 0.00 in 0 W/m2
17:20 42.4 °F 40.0 °F 30.00 in Calm   20.0 mph 91 % 0.00 in 0 W/m2
17:25 42.2 °F 40.0 °F 30.00 in Calm   20.0 mph 92 % 0.00 in 0 W/m2
17:30 41.9 °F 39.7 °F 30.01 in Calm   20.0 mph 92 % 0.00 in 0 W/m2
17:35 41.6 °F 39.4 °F 30.01 in Calm   20.0 mph 92 % 0.00 in 0 W/m2
17:40 41.2 °F 39.1 °F 30.01 in Calm   20.0 mph 92 % 0.00 in 0 W/m2
17:50 40.8 °F 38.7 °F 30.02 in Calm   20.0 mph 92 % 0.00 in 0 W/m2
17:55 40.5 °F 38.4 °F 30.02 in Calm   20.0 mph 92 % 0.00 in 0 W/m2
18:00 40.2 °F 38.1 °F 30.02 in Calm   20.0 mph 92 % 0.00 in 0 W/m2
18:05 40.0 °F 38.1 °F 30.02 in Calm   20.0 mph 93 % 0.00 in 0 W/m2
18:15 39.9 °F 38.3 °F 30.03 in Calm   20.0 mph 94 % 0.00 in 0 W/m2
18:20 39.8 °F 38.2 °F 30.03 in Calm   20.0 mph 94 % 0.00 in 0 W/m2
18:25 39.7 °F 38.1 °F 30.03 in Calm   20.0 mph 94 % 0.00 in 0 W/m2
18:30 39.9 °F 38.3 °F 30.03 in Calm   20.0 mph 94 % 0.00 in 0 W/m2
18:35 39.9 °F 38.3 °F 30.04 in Calm   20.0 mph 94 % 0.00 in 0 W/m2
18:45 40.0 °F 38.7 °F 30.04 in Calm   20.0 mph 95 % 0.00 in 0 W/m2
18:50 40.1 °F 38.8 °F 30.04 in Calm   20.0 mph 95 % 0.00 in 0 W/m2
18:55 40.2 °F 38.9 °F 30.04 in Calm   20.0 mph 95 % 0.00 in 0 W/m2
19:00 40.4 °F 39.1 °F 30.04 in Calm   20.0 mph 95 % 0.00 in 0 W/m2
19:10 40.5 °F 39.2 °F 30.05 in Calm   20.0 mph 95 % 0.00 in 0 W/m2
19:15 40.4 °F 39.1 °F 30.05 in Calm   20.0 mph 95 % 0.00 in 0 W/m2
19:20 40.4 °F 39.1 °F 30.05 in Calm   20.0 mph 95 % 0.00 in 0 W/m2
19:25 40.4 °F 39.1 °F 30.06 in Calm   20.0 mph 95 % 0.00 in 0 W/m2
19:30 40.4 °F 39.1 °F 30.06 in Calm   20.0 mph 95 % 0.00 in 0 W/m2
19:35 40.4 °F 39.1 °F 30.06 in Calm   20.0 mph 95 % 0.00 in 0 W/m2
19:45 40.3 °F 39.0 °F 30.06 in Calm   20.0 mph 95 % 0.00 in 0 W/m2
19:50 40.3 °F 39.0 °F 30.06 in Calm   20.0 mph 95 % 0.00 in 0 W/m2
19:55 40.1 °F 38.8 °F 30.06 in Calm   20.0 mph 95 % 0.00 in 0 W/m2
20:05 39.7 °F 38.4 °F 30.07 in Calm   20.0 mph 95 % 0.00 in 0 W/m2
20:10 39.6 °F 38.3 °F 30.07 in Calm   20.0 mph 95 % 0.00 in 0 W/m2
20:15 39.6 °F 38.6 °F 30.07 in Calm   20.0 mph 96 % 0.00 in 0 W/m2
20:20 39.6 °F 38.6 °F 30.07 in Calm   20.0 mph 96 % 0.00 in 0 W/m2
20:25 39.7 °F 38.7 °F 30.07 in NW 1.0 mph 20.0 mph 96 % 0.00 in 0 W/m2
20:35 40.0 °F 39.0 °F 30.08 in NW 2.0 mph 20.0 mph 96 % 0.00 in 0 W/m2
20:40 40.1 °F 39.1 °F 30.08 in WNW 2.0 mph 20.0 mph 96 % 0.00 in 0 W/m2
20:45 40.1 °F 39.1 °F 30.08 in NW 3.0 mph 20.0 mph 96 % 0.00 in 0 W/m2
20:50 40.2 °F 39.2 °F 30.08 in NW 3.0 mph 3.0 mph 96 % 0.00 in 0 W/m2
20:55 40.2 °F 38.9 °F 30.08 in NW 2.0 mph 20.0 mph 95 % 0.00 in 0 W/m2
21:00 40.2 °F 38.9 °F 30.08 in NW 1.0 mph 1.0 mph 95 % 0.00 in 0 W/m2
21:10 40.0 °F 38.7 °F 30.09 in Calm   20.0 mph 95 % 0.00 in 0 W/m2
21:15 39.9 °F 38.3 °F 30.09 in Calm   20.0 mph 94 % 0.00 in 0 W/m2
21:20 39.8 °F 38.2 °F 30.09 in Calm   20.0 mph 94 % 0.00 in 0 W/m2
21:25 39.5 °F 37.9 °F 30.09 in Calm   20.0 mph 94 % 0.00 in 0 W/m2
21:30 39.3 °F 37.7 °F 30.09 in Calm   20.0 mph 94 % 0.00 in 0 W/m2
21:40 38.8 °F 37.2 °F 30.10 in Calm   20.0 mph 94 % 0.00 in 0 W/m2
21:45 38.5 °F 36.9 °F 30.10 in Calm   20.0 mph 94 % 0.00 in 0 W/m2
21:50 38.5 °F 37.2 °F 30.10 in ENE 1.0 mph 20.0 mph 95 % 0.00 in 0 W/m2
21:55 38.6 °F 37.3 °F 30.11 in ENE 1.0 mph 20.0 mph 95 % 0.00 in 0 W/m2
22:00 38.6 °F 37.3 °F 30.11 in Calm   20.0 mph 95 % 0.00 in 0 W/m2
22:05 38.5 °F 37.2 °F 30.11 in Calm   20.0 mph 95 % 0.00 in 0 W/m2
22:15 38.5 °F 37.2 °F 30.11 in North 1.0 mph 20.0 mph 95 % 0.00 in 0 W/m2
22:20 38.8 °F 37.5 °F 30.11 in North 2.0 mph 2.0 mph 95 % 0.00 in 0 W/m2
22:25 38.9 °F 37.6 °F 30.12 in NNW 1.0 mph 20.0 mph 95 % 0.00 in 0 W/m2
22:30 39.0 °F 37.7 °F 30.12 in NE 2.0 mph 2.0 mph 95 % 0.00 in 0 W/m2
22:35 39.1 °F 37.8 °F 30.12 in NNE 1.0 mph 20.0 mph 95 % 0.00 in 0 W/m2
22:45 39.2 °F 37.6 °F 30.13 in North 1.0 mph 20.0 mph 94 % 0.00 in 0 W/m2
22:50 39.2 °F 37.6 °F 30.13 in Calm   20.0 mph 94 % 0.00 in 0 W/m2
22:55 39.0 °F 37.4 °F 30.14 in Calm   20.0 mph 94 % 0.00 in 0 W/m2
23:00 38.9 °F 37.3 °F 30.14 in Calm   20.0 mph 94 % 0.00 in 0 W/m2
23:10 38.7 °F 37.1 °F 30.14 in Calm   20.0 mph 94 % 0.00 in 0 W/m2
23:15 38.7 °F 37.1 °F 30.14 in Calm   20.0 mph 94 % 0.00 in 0 W/m2
23:20 38.6 °F 37.0 °F 30.14 in Calm   20.0 mph 94 % 0.00 in 0 W/m2
23:30 38.6 °F 37.0 °F 30.15 in Calm   20.0 mph 94 % 0.00 in 0 W/m2
23:35 38.6 °F 37.0 °F 30.15 in Calm   20.0 mph 94 % 0.00 in 0 W/m2
23:40 38.5 °F 36.9 °F 30.15 in Calm   20.0 mph 94 % 0.00 in 0 W/m2
23:45 38.4 °F 36.8 °F 30.15 in Calm   20.0 mph 94 % 0.00 in 0 W/m2
23:55 38.4 °F 36.8 °F 30.15 in Calm   20.0 mph 94 % 0.00 in 0 W/m2
Delerius-Weather
Compliments of Weather Underground - 2 mb

Data updates at regular intervals.